Temp
15 15 15 15 15 15 15 14 14 14 15 15 15 16 17 17 18 18 17 22 23 23 23 23 22 22 22 20 19 18 21 20 22 21 23 22 23 22 21 22 21 21 21 19 17
15 15 15 15 15 15 15 14 14 14 15 15 15 16 16 17 17 17 23 23 23 23 23 22 22 22 21 21 20 20 20 21 21 22 22 22 22 22 23 22 22 21 18 16 16
14 15 15 15 15 15 15 14 14 14 14 15 15 16 16 17 16 20 22 23 23 22 23 23 22 22 22 21 20 19 21 20 22 21 22 22 22 21 22 22 22 22 20 16 15
13 14 15 15 15 15 15 14 14 14 14 14 14 15 16 17 19 22 22 23 23 22 23 22 21 21 21 22 20 22 21 20 22 22 21 22 22 22 20 23 21 20 18 17 17
12 14 14 15 15 14 14 14 14 14 14 14 14 15 16 16 17 22 22 22 22 22 22 21 21 21 21 21 20 21 21 20 21 21 20 20 21 21 20 20 19 18 17 17 17
11 12 14 14 14 14 14 14 14 14 14 14 14 15 15 15 21 21 21 21 21 22 22 21 21 20 20 21 21 20 21 20 20 20 20 20 20 19 20 18 18 17 18 17 17
10 11 13 14 14 14 14 13 13 13 13 14 14 14 13 16 21 20 20 21 21 22 21 22 22 22 20 20 20 19 21 19 20 19 20 18 20 19 19 17 18 17 17 16 16
9 10 10 13 14 13 13 13 13 13 13 13 14 13 13 19 19 20 21 21 21 22 22 23 23 20 21 19 18 19 18 20 20 18 19 20 20 20 18 17 18 16 16 15 16
9 9 10 11 13 13 13 13 13 13 13 13 13 13 14 19 18 21 21 21 21 21 22 22 21 19 19 19 19 17 19 18 19 18 19 19 19 20 17 17 18 17 16 15 15
8 9 9 9 11 13 13 12 12 12 12 13 13 14 16 19 20 20 21 21 21 20 21 20 16 18 17 18 19 19 18 18 18 20 18 18 18 20 18 17 18 17 16 15 15
9 8 9 9 9 12 12 12 11 11 11 13 13 16 18 19 20 19 20 21 19 19 18 18 18 18 18 20 19 18 18 18 18 19 19 18 18 20 20 16 18 17 16 15 15
9 9 8 8 9 10 12 12 11 15 12 12 12 13 15 17 19 18 20 19 19 18 17 17 17 18 18 18 18 18 18 18 18 18 18 18 18 19 19 19 18 19 17 16 14
8 8 8 7 7 8 12 13 15 15 14 15 14 14 16 17 18 18 18 17 17 16 16 17 18 17 18 17 18 17 17 18 19 18 17 16 17 17 19 16 16 16 17 16 15
8 8 8 7 7 9 12 12 15 16 14 14 14 14 16 16 16 18 19 18 17 17 15 16 17 18 17 17 18 17 17 18 18 18 18 17 18 18 19 19 16 16 15 16 14
7 8 8 7 7 9 12 11 13 16 12 15 14 17 15 17 17 17 18 18 16 16 16 17 16 17 17 18 17 19 17 17 18 17 16 16 16 17 17 19 20 18 15 13 13
7 7 7 7 7 9 9 11 10 10 12 15 13 14 14 16 16 16 17 17 16 16 17 17 17 17 18 18 18 17 17 15 13 15 16 17 17 18 19 20 20 18 15 12 12
6 7 7 7 8 10 9 9 9 12 14 13 13 14 15 14 15 16 16 16 16 16 15 16 17 18 18 17 17 17 17 17 17 16 17 15 15 18 20 18 18 19 17 13 12
6 6 7 7 8 8 7 10 11 11 12 14 14 14 15 15 15 14 15 16 14 16 14 16 16 16 17 18 17 15 17 17 17 17 17 14 16 20 18 18 17 15 15 13 12
6 6 6 7 8 7 7 10 13 12 14 13 14 14 14 15 14 15 14 17 17 14 17 14 15 16 16 17 19 16 16 16 15 13 14 16 17 19 18 18 17 16 13 12 12
6 6 7 7 7 7 7 9 11 13 16 14 14 13 12 13 14 15 14 16 15 15 17 16 16 16 17 17 16 17 16 17 14 17 16 16 16 19 19 19 17 17 14 12 11
6 6 8 8 7 7 8 9 11 13 15 15 13 12 13 13 13 15 14 16 17 14 16 14 16 16 16 15 16 16 16 14 15 14 17 16 18 16 18 18 17 17 15 13 12
6 6 9 8 7 6 7 10 13 14 15 15 14 13 13 13 13 13 13 16 15 16 17 15 14 14 15 16 15 15 17 18 18 15 13 14 16 17 17 16 16 16 16 14 12
5 6 8 8 8 7 9 11 13 14 14 14 15 15 13 13 14 14 14 15 13 16 17 15 14 14 15 15 15 15 14 15 14 13 13 16 17 17 17 16 16 16 16 15 13
4 6 6 7 8 9 9 11 12 15 16 15 15 14 14 14 13 13 13 15 13 15 16 18 13 17 17 17 15 15 15 15 17 14 16 15 18 20 19 18 17 17 17 16 14
3 5 6 7 8 8 11 12 12 14 14 15 14 16 15 13 14 13 13 14 14 15 14 15 14 14 15 17 16 16 16 16 15 18 17 18 16 18 20 19 18 16 15 16 15
4 5 5 6 8 8 9 10 12 14 14 14 14 13 14 13 15 12 13 13 14 13 13 12 15 14 15 15 15 16 15 15 16 16 15 15 16 17 17 16 16 17 15 15 15
3 4 4 6 8 7 9 10 12 14 15 16 16 14 14 15 15 16 16 15 14 13 12 13 13 13 14 14 14 14 15 15 14 14 16 15 19 19 17 15 16 15 14 14 14
Height
819 819 820 821 820 820 821 821 820 821 819 818 816 814 812 810 807 805 802 800 798 798 799 801 803 803 803 806 807 810 826 834 827 829 818 812 813 811 811 813 814 813 813 815 816
814 815 816 817 817 818 818 818 818 819 818 816 816 812 811 808 804 800 796 797 798 798 798 800 802 803 806 807 810 815 828 826 817 816 816 813 813 812 813 815 814 814 814 814 816
810 810 810 812 814 815 815 815 816 816 816 814 814 810 810 807 804 794 792 792 796 797 797 799 801 802 807 807 811 818 822 817 813 812 812 813 813 811 814 818 810 811 810 813 816
806 806 807 808 809 811 811 812 813 813 814 812 812 809 808 807 813 790 791 790 793 796 796 797 801 807 812 813 811 816 814 815 810 810 813 814 811 812 813 806 803 805 807 810 813
803 802 801 802 804 806 807 809 810 810 811 810 811 809 807 808 799 790 789 788 791 795 796 796 800 806 812 811 812 815 812 815 810 811 813 813 814 812 810 803 804 805 807 808 810
799 798 796 797 800 802 804 805 807 807 808 808 808 808 807 812 790 788 789 790 790 792 795 795 796 799 807 809 812 811 812 813 812 812 813 814 814 814 803 802 804 806 806 807 809
796 795 792 793 795 798 800 801 803 804 805 805 806 806 806 796 789 786 788 790 790 791 793 794 794 797 804 810 808 813 816 816 812 814 814 814 816 812 801 804 804 806 806 807 808
792 791 789 789 789 791 796 797 799 801 802 802 804 804 800 786 785 785 787 789 789 790 791 792 794 797 802 808 814 820 825 828 813 814 813 813 819 802 800 803 803 805 806 807 806
789 788 786 784 785 788 790 793 796 799 800 802 803 803 798 782 781 780 783 787 787 789 790 792 795 802 806 817 825 831 831 833 821 813 813 817 815 800 801 804 802 803 804 805 805
785 784 782 781 779 782 781 790 794 798 799 801 803 806 786 777 775 776 779 784 786 788 792 795 806 812 817 820 828 828 833 832 828 815 815 817 813 799 798 800 797 799 800 802 802
782 779 779 778 776 776 778 785 795 798 794 786 783 778 773 772 774 775 777 782 786 790 802 800 811 816 810 808 812 819 825 828 821 814 816 814 811 800 792 799 793 793 795 796 797
777 776 775 775 774 770 766 768 773 774 784 778 779 777 773 773 775 774 776 785 789 798 800 808 812 804 804 810 813 818 822 824 816 814 818 813 809 793 789 782 781 780 784 786 794
773 773 772 772 769 767 758 762 766 770 777 770 769 772 771 773 773 773 774 780 789 800 802 806 801 800 804 813 816 821 823 822 820 816 816 819 809 798 781 781 778 775 773 776 781
767 768 769 769 772 760 756 756 762 767 781 770 766 760 765 767 774 765 768 774 786 793 802 803 796 800 807 810 812 824 812 812 816 820 824 818 817 801 781 773 774 772 772 771 776
762 763 766 767 764 759 755 753 758 762 783 754 753 745 747 759 761 765 765 770 785 789 794 796 799 801 807 804 805 807 808 814 813 820 826 823 825 799 786 772 762 762 767 768 772
758 757 759 760 758 752 753 746 755 772 762 740 742 746 753 753 757 761 765 765 773 785 787 788 788 792 790 794 797 802 810 820 829 829 829 815 816 802 784 767 761 760 763 767 771
751 750 752 752 746 749 746 737 761 743 727 736 737 738 740 751 759 758 767 773 777 792 798 791 791 785 785 798 800 803 814 829 827 831 819 821 825 796 765 766 761 757 757 764 768
742 742 740 741 744 747 752 738 726 732 729 718 723 732 737 744 754 757 763 768 773 773 794 795 804 788 782 786 797 807 806 820 825 824 818 824 813 778 763 758 758 759 758 761 766
734 731 733 734 741 744 748 727 699 710 710 720 726 736 744 740 745 752 759 754 754 765 774 794 793 779 779 778 780 805 809 803 819 829 827 809 794 770 758 756 756 756 761 762 764
728 727 726 730 735 740 747 724 710 696 698 707 721 727 738 737 742 746 758 745 753 755 755 775 787 780 778 776 783 784 791 807 820 816 820 808 804 781 762 759 758 754 758 762 764
724 722 716 720 731 731 727 718 708 695 687 700 712 724 726 728 734 738 744 739 736 753 752 769 774 785 781 782 784 791 795 802 801 810 801 804 790 770 764 760 758 755 756 758 761
719 718 713 715 722 723 721 706 697 692 688 689 696 707 715 723 732 735 737 729 729 735 748 757 774 788 781 773 773 776 777 776 787 807 813 808 790 761 761 760 760 755 753 755 757
717 711 709 711 701 708 705 700 692 689 685 687 692 690 704 714 725 728 730 726 730 733 739 750 768 784 783 781 778 776 780 779 787 794 802 794 781 759 759 758 755 756 753 754 755
722 703 702 699 696 692 697 693 689 680 678 684 685 688 700 709 713 725 728 725 729 729 730 734 760 751 757 760 767 775 773 773 772 791 782 785 769 754 752 754 753 750 747 748 750
719 704 693 685 681 683 681 675 681 678 679 682 684 680 691 711 714 721 724 727 730 727 736 740 754 757 755 751 758 759 761 764 770 762 769 761 771 755 744 746 745 746 745 745 745
715 708 694 686 679 678 680 677 670 668 670 676 678 684 683 695 692 713 711 718 722 732 737 743 748 753 754 755 757 757 758 760 757 761 766 765 760 743 741 741 744 739 741 741 739
710 706 701 682 671 674 670 667 661 660 661 658 669 675 682 681 681 684 689 697 706 718 734 740 750 758 757 754 760 764 752 752 756 754 748 763 739 731 737 742 738 736 737 737 736
Wind_Speed
22 22 22 21 18 16 15 15 14 15 14 15 15 14 14 16 17 14 6 8 2 8 8 6 3 1 2 2 3 2 3 2 3 4 2 1 2 1 1 3 1 1 2 1 14
23 23 25 23 20 18 17 15 14 15 15 15 15 14 15 15 18 14 14 10 9 7 8 8 3 2 2 2 2 3 2 6 3 2 3 2 2 4 3 2 3 2 1 4 15
23 26 26 25 23 20 18 16 16 15 15 14 15 13 14 13 5 5 4 5 13 10 8 7 4 3 2 1 1 2 3 3 3 4 3 1 1 3 4 4 7 6 5 8 11
22 24 28 26 24 21 18 16 16 14 14 13 14 12 12 5 4 2 9 4 16 11 9 8 3 4 3 3 2 2 2 4 2 2 3 2 1 3 5 6 2 6 5 9 12
20 23 27 27 24 22 19 16 17 15 13 12 12 10 5 2 9 10 12 2 17 14 10 5 5 4 5 4 3 3 3 4 2 3 3 1 5 5 6 7 3 3 7 10 9
21 18 24 25 25 22 19 16 17 13 12 11 9 7 1 4 6 6 2 7 11 13 7 6 6 5 4 3 4 2 1 2 2 3 3 4 3 3 5 2 4 5 8 7 8
21 19 19 24 27 21 18 16 14 12 11 9 7 3 1 12 4 3 4 3 6 8 4 5 6 4 5 3 1 2 2 5 3 0 4 4 6 9 4 3 6 7 6 6 8
21 20 21 22 23 20 17 15 12 11 9 7 5 2 7 9 11 22 10 10 5 8 5 2 5 5 2 4 5 3 4 2 2 3 2 4 7 6 2 7 9 9 7 6 6
23 22 22 15 24 23 17 12 11 10 7 5 3 3 9 5 7 17 16 7 7 6 3 6 4 3 3 5 3 5 2 3 6 4 2 3 6 3 2 5 8 9 10 8 7
23 24 22 24 13 24 17 13 9 6 6 3 2 0 7 4 5 6 16 14 3 5 4 4 4 3 2 3 5 4 3 4 4 3 2 4 11 13 7 7 10 10 11 10 10
20 24 25 23 23 24 23 14 5 1 7 8 8 6 2 2 3 3 9 11 4 4 6 2 3 7 8 7 4 5 4 5 4 4 2 6 10 14 13 6 11 12 12 13 13
22 21 25 23 25 19 36 9 11 5 5 19 3 8 8 3 4 4 13 6 5 5 6 3 8 8 6 4 4 3 4 5 5 2 4 6 10 15 11 13 11 15 14 14 8
21 20 21 24 27 26 25 23 19 9 1 4 17 6 5 8 4 7 10 5 5 6 7 7 3 9 7 4 5 3 4 4 6 3 3 5 7 6 5 5 5 9 9 12 16
20 20 19 18 16 17 23 30 15 13 2 6 7 9 7 7 6 8 14 7 3 12 8 5 4 5 4 5 7 5 7 4 4 2 3 2 5 6 10 11 6 8 10 11 14
20 21 18 13 14 9 8 35 16 18 6 7 8 7 10 11 10 6 9 4 9 7 7 8 8 6 4 7 7 8 6 5 2 3 2 1 4 6 5 9 12 6 10 11 13
23 21 19 16 18 28 31 33 12 7 10 6 7 9 9 7 5 5 4 4 4 6 0 8 3 7 10 3 8 8 5 5 3 2 3 7 6 3 5 4 4 2 3 8 12
24 25 23 20 11 22 21 15 5 6 6 8 8 10 9 8 7 8 11 8 9 7 5 2 3 4 4 5 2 4 5 2 2 1 5 2 2 10 12 7 6 9 5 7 11
29 27 27 26 22 24 15 8 6 8 8 3 7 12 13 7 8 8 13 14 5 5 5 8 5 8 4 8 8 7 9 5 6 4 3 2 5 6 6 5 5 5 6 7 11
24 22 24 22 23 13 2 11 8 7 8 7 7 9 5 5 7 5 9 17 18 9 10 6 7 1 4 5 9 5 4 4 4 1 0 4 6 9 5 5 3 4 2 7 10
12 9 18 19 19 10 5 9 6 5 12 9 7 5 8 13 7 12 11 9 8 8 7 7 2 3 3 4 4 7 8 3 1 4 5 3 4 6 7 8 8 4 5 5 7
8 4 6 20 21 5 8 9 9 10 9 9 7 6 7 9 8 12 14 2 16 11 8 6 4 1 4 6 9 3 3 3 4 4 4 2 4 5 5 6 7 6 5 6 9
4 5 10 20 10 4 12 7 6 11 9 4 5 5 9 9 6 8 12 9 10 17 18 7 5 4 7 2 4 5 8 11 7 4 2 1 6 5 6 6 5 6 5 4 6
5 3 14 17 9 10 10 17 8 12 14 6 4 4 3 9 5 5 8 5 8 16 18 9 4 4 2 2 2 4 5 4 4 3 7 6 5 0 3 6 6 6 4 4 5
3 3 5 8 11 17 21 18 16 19 13 6 5 5 6 6 3 9 8 4 8 10 12 15 4 12 11 4 6 5 6 7 9 4 6 7 9 15 10 5 6 6 5 5 6
2 4 2 4 13 16 18 14 25 13 6 8 1 9 8 6 4 5 5 3 2 4 6 7 6 5 6 6 6 8 8 13 11 16 11 11 11 15 14 10 10 8 5 6 6
2 3 3 2 4 13 16 16 29 22 18 21 6 8 7 9 8 9 10 5 7 3 6 2 3 7 7 7 8 6 8 8 14 5 8 7 10 13 8 6 6 10 7 8 8
4 6 4 5 9 7 10 25 27 22 11 22 18 9 7 10 9 8 7 9 12 11 6 8 6 4 6 4 3 7 11 10 5 6 9 8 17 6 6 9 12 10 7 9 8
Wind_Direction
268 268 270 281 282 279 279 286 291 301 306 308 311 315 319 317 312 302 248 250 203 201 169 175 182 169 119 90 74 128 72 175 206 168 218 298 151 96 107 126 204 236 185 76 152
267 261 266 273 278 279 278 279 285 293 300 305 307 314 320 321 316 279 268 252 241 192 170 170 175 142 62 90 45 89 125 208 206 202 218 180 192 176 153 149 235 244 218 143 163
268 260 258 264 271 275 277 275 280 287 294 300 304 313 320 326 310 250 355 241 221 203 171 168 140 124 122 117 128 156 181 202 242 226 205 206 264 182 156 233 221 207 192 165 172
277 267 254 254 264 269 273 270 274 280 289 296 299 310 319 320 270 156 347 293 194 192 162 145 106 115 139 172 155 147 210 173 267 223 155 220 144 264 190 238 194 223 175 170 180
293 270 260 252 257 263 268 262 266 275 282 290 297 310 329 297 253 280 318 315 176 179 184 148 145 148 174 168 128 160 209 179 282 287 248 3 251 244 244 252 265 143 167 181 191
318 296 265 258 253 256 258 253 261 268 274 282 291 307 289 245 260 278 289 167 180 180 188 168 183 184 132 160 166 185 193 308 290 266 262 214 266 133 259 181 201 186 195 197 202
313 322 285 256 246 246 247 245 256 264 267 276 283 292 235 239 237 170 131 186 191 189 163 208 163 130 136 135 90 82 350 339 260 139 242 167 284 236 214 174 207 216 211 209 218
301 318 325 263 249 241 239 239 242 251 262 269 264 191 246 263 250 246 236 269 252 200 200 194 174 102 77 116 34 61 49 352 288 142 338 165 270 272 195 182 216 217 223 231 235
290 298 317 292 245 233 228 223 226 240 241 239 213 172 265 269 236 236 225 209 178 181 172 122 110 108 66 101 38 17 246 229 307 199 139 164 277 265 94 213 246 227 221 225 244
289 290 295 315 314 230 200 204 199 210 196 171 238 35 256 227 187 199 203 202 149 120 83 71 53 104 81 129 208 198 219 259 251 223 191 226 258 277 248 203 238 230 221 219 223
286 290 293 306 298 240 184 144 98 309 216 194 193 213 309 230 181 176 166 142 109 92 158 110 138 198 187 192 155 152 177 237 243 259 222 242 260 266 274 225 237 234 223 220 217
285 284 294 289 305 321 183 168 187 170 219 234 238 283 268 296 155 189 162 139 149 170 116 79 214 208 173 144 145 157 179 254 283 227 187 286 271 271 254 254 228 228 221 218 191
279 286 292 296 295 296 215 188 182 183 213 243 213 201 206 171 226 204 158 141 140 137 183 181 218 159 154 149 173 201 186 222 237 333 230 312 276 286 282 256 242 233 222 210 198
281 283 290 302 298 277 226 177 145 146 247 247 195 239 183 154 227 196 178 143 156 180 159 216 204 143 170 187 158 217 209 220 233 32 260 16 285 300 273 271 243 241 219 212 186
287 280 279 271 281 296 277 180 148 124 197 218 188 164 159 175 142 222 175 68 159 167 143 216 168 157 160 206 161 226 161 187 191 188 343 281 276 266 283 278 274 275 234 213 189
287 280 270 262 251 260 282 163 140 133 220 206 144 168 132 178 178 117 144 73 140 121 105 186 182 167 192 158 170 147 91 55 56 102 250 227 204 275 261 228 298 255 289 204 187
290 277 259 240 237 250 316 126 141 205 155 186 175 167 160 158 168 154 162 172 167 156 166 145 203 195 141 112 80 114 97 300 298 221 247 113 157 248 266 274 254 285 297 208 185
280 273 251 242 248 253 289 206 174 191 205 108 143 140 181 130 203 164 155 188 244 123 147 168 216 173 190 164 171 184 169 171 223 218 276 104 231 246 231 271 250 276 264 182 177
296 263 239 238 241 218 300 215 190 163 160 138 76 133 162 187 137 138 183 196 191 171 165 157 232 210 185 150 151 173 168 186 108 76 9 235 282 286 292 290 266 282 216 189 177
298 239 239 231 224 176 221 234 238 208 150 165 145 161 166 173 136 175 168 192 183 175 148 194 152 208 182 102 41 160 161 113 26 213 237 260 260 241 293 298 309 269 237 209 181
262 238 219 211 192 182 221 227 233 253 154 158 154 146 164 169 152 181 192 246 178 184 157 138 118 251 117 201 167 137 170 63 137 162 206 235 252 216 252 290 295 296 254 208 198
261 233 187 183 196 182 220 226 221 213 222 162 114 119 155 158 143 176 191 206 183 161 185 181 138 163 202 268 198 166 189 190 206 209 229 214 260 225 257 281 302 293 278 218 198
289 221 237 201 216 205 224 226 217 202 197 182 147 139 162 151 143 177 180 204 154 167 174 178 186 128 10 351 321 191 188 165 119 88 189 218 257 235 276 309 285 268 282 237 212
272 228 221 193 238 204 203 213 201 213 181 181 149 107 118 145 15 178 168 187 176 175 167 171 150 199 209 198 143 182 189 185 187 176 204 219 255 274 270 263 277 255 265 250 210
183 277 235 208 206 211 205 199 197 193 151 203 38 179 154 131 112 148 137 115 113 161 142 141 186 176 216 187 174 191 188 194 197 216 214 236 222 248 258 254 255 248 247 241 220
267 277 279 246 183 196 201 216 198 202 168 207 203 182 164 154 178 180 143 171 173 162 146 170 200 158 227 209 198 218 226 208 206 214 246 257 270 241 251 237 264 260 273 265 261
224 275 289 281 201 183 200 203 202 191 197 192 194 144 169 189 166 182 162 153 159 147 152 145 132 118 237 173 123 270 209 200 189 194 203 203 237 229 232 218 237 249 240 245 246